This is the latest recevied weather packets stored in our database for station/object ED4YAZ-13. If no packets are shown the sender has not sent any weather packets the latest 10 day(s).
| Time | Temp. | Humidity | Pressure | Rain* | Wind** | Luminosity | Snow |
|---|---|---|---|---|---|---|---|
| 1777492168 | 12.78° C | 99% | 1013.2 hPa | - | - | - | - |
| 1777491056 | 12.78° C | 98% | 1012.7 hPa | - | - | - | - |
| 1777490456 | 12.78° C | 99% | 1012.5 hPa | - | - | - | - |
| 1777489846 | 12.78° C | 98% | 1012.5 hPa | - | - | - | - |
| 1777489246 | 12.78° C | 98% | 1012.2 hPa | - | - | - | - |
| 1777488636 | 12.22° C | 97% | 1012.3 hPa | - | - | - | - |
| 1777488036 | 12.22° C | 92% | 1012.1 hPa | - | - | - | - |
| 1777487436 | 13.33° C | 83% | 1011.3 hPa | - | - | - | - |
| 1777486836 | 14.44° C | 81% | 1010.1 hPa | - | - | - | - |
| 1777486236 | 15° C | 75% | 1009.7 hPa | - | - | - | - |
| 1777485627 | 15.56° C | 74% | 1009.7 hPa | - | - | - | - |
| 1777485019 | 15.56° C | 74% | 1009.6 hPa | - | - | - | - |
| 1777484419 | 16.67° C | 67% | 1009.1 hPa | - | - | - | - |
| 1777483829 | 17.22° C | 63% | 1008.7 hPa | - | - | - | - |
| 1777483810 | 17.22° C | 63% | 1008.7 hPa | - | - | - | - |
| 1777483210 | 18.33° C | 59% | 1008.4 hPa | - | - | - | - |
| 1777482603 | 18.89° C | 56% | 1008 hPa | - | - | - | - |
| 1777481999 | 19.44° C | 52% | 1007.8 hPa | - | - | - | - |
| 1777481399 | 28.89° C | 38% | 1004.2 hPa | - | - | - | - |
| 1777480806 | 18.33° C | 58% | 1008.6 hPa | - | - | - | - |
| 1777480799 | 18.33° C | 58% | 1008.6 hPa | - | - | - | - |
| 1777480199 | 21.11° C | 49% | 1007.3 hPa | - | - | - | - |
| 1777479606 | 21.11° C | 50% | 1007.4 hPa | - | - | - | - |
| 1777479598 | 21.11° C | 50% | 1007.4 hPa | - | - | - | - |
| 1777478998 | 31.67° C | 35% | 1003.2 hPa | - | - | - | - |
* Rain since midnight (hover to see other rain measurements)
** Current wind speed in m/s (hover to see current wind gust speed)